Total_Precipitation_Accumulation
2.69 2.74 2.75 2.82 2.71 2.54 2.52 2.65 2.78 2.55 2.35 2.13 1.93 1.73 1.77 1.75 1.86 1.63 1.59 1.62 1.57 1.46 1.32 1.23 1.22 1.37 1.70 2.10 2.33 2.32 2.37 2.64 3.08 3.43 3.26 3.17 3.10 3.09
2.40 2.45 2.49 2.54 2.54 2.49 2.48 2.53 2.55 2.52 2.39 2.14 1.84 1.58 1.64 1.69 1.86 1.60 1.66 1.87 1.74 1.57 1.34 1.27 1.24 1.24 1.37 1.50 1.62 1.59 1.59 1.72 2.09 2.76 3.03 3.02 3.05 3.16
2.08 2.12 2.24 2.32 2.51 2.53 2.49 2.48 2.48 2.40 2.25 2.12 1.85 1.64 1.62 1.72 1.79 1.66 1.69 1.75 1.67 1.62 1.46 1.37 1.25 1.30 1.39 1.42 1.46 1.39 1.29 1.30 1.41 1.67 2.03 2.25 2.45 2.72
1.83 1.88 2.01 2.08 2.22 2.33 2.42 2.33 2.37 2.35 2.32 2.26 2.03 1.82 1.72 1.73 1.82 1.77 1.64 1.63 1.64 1.71 1.53 1.43 1.33 1.25 1.35 1.36 1.43 1.50 1.41 1.30 1.24 1.28 1.44 1.65 1.87 2.11
1.60 1.68 1.76 1.85 1.95 2.05 2.13 2.20 2.25 2.24 2.33 2.30 2.10 1.91 1.75 1.70 1.75 1.69 1.62 1.69 1.59 1.70 1.66 1.51 1.45 1.34 1.35 1.35 1.33 1.47 1.49 1.41 1.25 1.24 1.31 1.43 1.58 1.75
1.40 1.39 1.43 1.47 1.60 1.74 1.82 1.95 2.11 2.26 2.35 2.36 2.20 1.96 1.78 1.73 1.80 1.85 1.82 1.71 1.70 1.62 1.66 1.62 1.60 1.56 1.44 1.40 1.31 1.32 1.43 1.48 1.31 1.24 1.24 1.27 1.29 1.36
1.47 1.35 1.25 1.26 1.41 1.52 1.57 1.78 1.98 2.14 2.27 2.33 2.23 2.05 1.89 1.82 1.77 1.76 1.84 1.91 1.90 1.75 1.69 1.59 1.56 1.42 1.29 1.31 1.30 1.25 1.24 1.28 1.24 1.12 1.06 1.01 1.02 1.08
1.40 1.38 1.39 1.36 1.24 1.22 1.31 1.46 1.67 1.85 2.01 2.12 2.14 1.96 1.78 1.76 1.84 1.85 1.84 1.90 1.93 1.79 1.73 1.78 1.72 1.60 1.43 1.29 1.35 1.29 1.23 1.21 1.22 1.19 1.11 1.03 1.03 1.05
1.35 1.35 1.38 1.36 1.43 1.28 1.26 1.27 1.26 1.42 1.67 1.88 1.90 1.80 1.84 1.79 1.79 1.76 1.73 1.71 1.73 1.76 1.78 1.79 1.76 1.66 1.49 1.41 1.50 1.43 1.37 1.30 1.26 1.24 1.22 1.14 1.07 1.04
1.44 1.48 1.53 1.54 1.47 1.59 1.55 1.43 1.30 1.26 1.37 1.31 1.37 1.67 1.82 1.89 1.91 1.92 1.95 1.84 1.75 1.76 1.71 1.73 1.61 1.56 1.47 1.39 1.47 1.40 1.36 1.30 1.25 1.22 1.24 1.26 1.25 1.22
1.47 1.44 1.49 1.50 1.76 1.87 1.68 1.58 1.46 1.36 1.55 1.58 1.56 1.65 1.77 1.81 1.81 1.86 1.92 1.87 1.77 1.70 1.60 1.52 1.45 1.53 1.61 1.52 1.47 1.55 1.51 1.40 1.30 1.30 1.31 1.31 1.36 1.37
1.56 1.49 1.66 1.59 1.67 1.68 1.56 1.70 1.60 1.43 1.36 1.34 1.33 1.40 1.44 1.54 1.64 1.61 1.74 1.78 1.68 1.70 1.55 1.49 1.47 1.57 1.64 1.54 1.40 1.40 1.48 1.53 1.43 1.36 1.39 1.41 1.42 1.34
1.49 1.48 1.45 1.62 1.48 1.48 1.50 1.56 1.69 1.65 1.59 1.60 1.50 1.40 1.36 1.37 1.38 1.43 1.57 1.66 1.66 1.62 1.49 1.48 1.53 1.59 1.54 1.42 1.40 1.32 1.27 1.28 1.26 1.22 1.23 1.33 1.40 1.32
1.33 1.20 1.22 1.38 1.28 1.27 1.27 1.37 1.58 1.62 1.55 1.60 1.55 1.44 1.33 1.27 1.26 1.31 1.44 1.52 1.52 1.50 1.54 1.54 1.55 1.56 1.56 1.37 1.32 1.33 1.30 1.27 1.24 1.19 1.10 1.27 1.34 1.38
1.15 1.19 1.14 1.12 1.11 1.04 1.09 1.25 1.34 1.49 1.56 1.56 1.43 1.31 1.28 1.29 1.31 1.32 1.33 1.42 1.46 1.44 1.43 1.42 1.48 1.56 1.62 1.49 1.36 1.31 1.37 1.39 1.34 1.28 1.21 1.16 1.16 1.22
0.99 0.94 0.95 0.96 0.97 0.95 0.96 0.99 1.08 1.36 1.58 1.52 1.40 1.32 1.32 1.37 1.43 1.46 1.43 1.38 1.44 1.44 1.45 1.45 1.42 1.47 1.46 1.37 1.39 1.40 1.37 1.40 1.38 1.39 1.36 1.29 1.20 1.14
1.16 1.06 1.01 0.96 0.94 0.94 0.94 1.00 1.15 1.30 1.47 1.41 1.42 1.38 1.39 1.45 1.47 1.51 1.59 1.56 1.49 1.41 1.47 1.58 1.63 1.61 1.54 1.48 1.46 1.41 1.45 1.43 1.42 1.46 1.49 1.43 1.29 1.16
1.24 1.18 1.20 1.16 1.12 1.10 1.06 1.03 1.06 1.16 1.26 1.35 1.38 1.41 1.43 1.47 1.48 1.50 1.56 1.58 1.54 1.46 1.41 1.51 1.69 1.82 1.80 1.65 1.47 1.41 1.49 1.56 1.57 1.57 1.55 1.46 1.31 1.22
1.15 1.14 1.17 1.16 1.12 1.11 1.09 1.06 1.07 1.10 1.18 1.28 1.42 1.50 1.52 1.55 1.60 1.61 1.60 1.60 1.52 1.45 1.42 1.45 1.61 1.80 1.88 1.69 1.44 1.32 1.39 1.49 1.61 1.58 1.51 1.42 1.27 1.18
0.96 1.05 1.10 1.13 1.12 1.10 1.07 1.04 1.03 1.05 1.12 1.18 1.30 1.42 1.58 1.70 1.72 1.72 1.73 1.74 1.69 1.58 1.52 1.50 1.50 1.59 1.73 1.65 1.45 1.28 1.31 1.41 1.52 1.52 1.42 1.36 1.30 1.33
0.76 0.88 0.96 1.00 1.00 1.03 1.06 1.10 1.11 1.10 1.10 1.14 1.18 1.23 1.35 1.53 1.67 1.72 1.78 1.93 1.91 1.78 1.68 1.60 1.56 1.65 1.60 1.61 1.51 1.22 1.16 1.26 1.36 1.40 1.41 1.45 1.40 1.30
0.76 0.82 0.88 0.94 1.00 1.03 1.06 1.08 1.09 1.08 1.09 1.13 1.15 1.19 1.25 1.34 1.44 1.53 1.61 1.74 1.82 1.85 1.80 1.69 1.64 1.71 1.70 1.73 1.57 1.32 1.23 1.21 1.25 1.38 1.41 1.49 1.47 1.36
0.74 0.77 0.79 0.86 0.91 1.00 1.13 1.20 1.17 1.13 1.13 1.17 1.24 1.27 1.29 1.34 1.35 1.41 1.46 1.54 1.64 1.70 1.76 1.76 1.69 1.66 1.65 1.61 1.60 1.52 1.41 1.36 1.31 1.29 1.24 1.33 1.36 1.28